STARLINK-36741

Last updated on Sat Mar 14 2026 00:02:06 GMT+0000 (Coordinated Universal Time)

1 67727U 26026G 26072.58334491 .00108213 00000+0 32310-2 0 9994 2 67727 97.2849 127.0743 0001084 110.1032 77.1661 15.34179497 5941
UTC large
Height (km)
Speed (km/s)
/
Latitude / Longitude
Inclination (degrees)
Orbital Period (minutes)
Azimuth
Elevation
Range (km)
Doppler Factor

Next 0 passes for location: London (51.5072 / 0.1276)

Sorry there are no passes over London.